Voltar ao catálogo

STARLINK-37003

AtivoComunicaçõesVLEO
NORAD 68170·PAYLOAD·🇺🇸 United States

Lançado Mar 14, 2026 de Vandenberg Space Force Base

Loading…

Próximas Passagens (próximas 24 horas)

TLE

AtualizadoSource: CelesTrak SupGP

Época: Sep 14, 2026, 23:23 UTC

1 68170C 26050D   26257.97479167  .00021402  00000+0  63246-3 0  2576
2 68170  53.1575 103.2824 0001229  81.6209 278.1037 15.34373082    15

Acompanhe STARLINK-37003 em tempo real com AllMySat

Download on the App Store